User: anonymous   Login
Location: Newark
(52.0178°N, 4.7453°W)
Time: 06:08:01
(UTC+00:00)
Language:

Envisat - Orbit

View from above orbital plane
View from above orbital plane
View from above satellite
View from above satellite

Ground track
Ground track

The orbit data is extracted from the following two-line orbital elements,

1 27386U 02009A   19286.64816899  .00000010  00000-0  16838-4 0  9995
2 27386  98.1455 301.6684 0001175  92.5699  16.1868 14.37959610923001
Epoch (UTC): 13 October 2019 15:33:21
Eccentricity: 0.0001175
inclination: 98.1455°
perigee height: 764 km
apogee height: 766 km
right ascension of ascending node: 301.6684°
argument of perigee: 92.5699°
revolutions per day: 14.37959610
mean anomaly at epoch: 16.1868°
orbit number at epoch: 92300

The dashed part of the orbit path shows where the satellite is in the earth's shadow,  

DLR